Location: Pandora
(40.9481°N, 83.9611°W)
Time: 02:40:02
(UTC-04:00)

ISS - Pass Details

Date: 05 October 2021
Orbit: 417 x 423 km, 51.6° (Epoch: 16 October)

Event Time Altitude Azimuth Distance (km) Brightness Sun altitude
Rises 20:33:51 0° 300° (WNW) 2,362 1.3 -16.5°
Reaches altitude 10° 20:36:01 10° 293° (WNW) 1,496 0.2 -16.9°
Maximum altitude 20:39:10 39° 223° (SW) 644 -2.6 -17.5°
Enters shadow 20:40:44 23° 169° (S) 924 -2.2 -17.8°
